Station BHRI3 - Burns Harbor, IN Image indicating link to RSS feed of recent meteorological observations for station BHRI3


Conditions at BHRI3 as of
(4:40 am CDT)
0940 GMT on 07/21/2024:
     

Click on the graph icon in the table below to see a time series plot of the last five days of that observation.

5-day plot - Wind Direction Wind Direction (WDIR): S ( 180 deg true )
5-day plot - Wind Speed Wind Speed (WSPD): 2.9 kts
5-day plot - Wind Gust Wind Gust (GST): 4.1 kts
5-day plot - Atmospheric Pressure Atmospheric Pressure (PRES):30.12 in
5-day plot - Air Temperature Air Temperature (ATMP): 65.7 °F
5-day plot - Wind Speed at 10 Meters Wind Speed at 10 meters (WSPD10M): 3.9 kts
5-day plot - Wind Speed at 20 Meters Wind Speed at 20 meters (WSPD20M): 3.9 kts
5-day plot -  Wind Speed, Wind Gust and Atmospheric Pressure Combined plot of Wind Speed, Gust, and Air Pressure
Previous observations
TIME
(CDT)
5-day plot - Wind Direction
WDIR
 
5-day plot - Wind Speed
WSPD
kts
5-day plot - Wind Gust
GST
kts
5-day plot - Wave Height
WVHT
ft
5-day plot - Dominant Wave Period
DPD
sec
5-day plot - Average Wave Period
APD
sec
5-day plot - Mean Wave Direction
MWD
 
5-day plot - Atmospheric Pressure
PRES
in
5-day plot - Pressure Tendency
PTDY
in
5-day plot - Air Temperature
ATMP
°F
5-day plot - Water Temperature
WTMP
°F
5-day plot - Dew Point
DEWP
°F
5-day plot - Salinity
SAL
psu
5-day plot - Visibility
VIS
nmi
5-day plot - Tide (above MLLW)
TIDE
ft
2024-07-21 04:30 am S 2.9 2.9----30.12- 66.2-----
2024-07-21 04:20 amSSW 1.9 2.9----30.12- 66.0-----
2024-07-21 04:10 am- 0.0 0.0----30.12- 66.0-----
2024-07-21 04:00 am- 0.0 0.0----30.12-0.01 66.7-----
2024-07-21 03:40 am- 0.0 0.0----30.12- 67.3-----
2024-07-21 03:30 am- 0.0 0.0----30.12- 68.0-----
2024-07-21 03:20 am- 0.0 0.0----30.12- 67.6-----
2024-07-21 03:10 am- 0.0 0.0----30.13- 68.2-----
2024-07-21 03:00 am- 0.0 4.1----30.13+0.00 67.8-----
2024-07-21 02:40 am S 1.9 2.9----30.12- 68.2-----
2024-07-21 02:30 am- 0.0 0.0----30.12- 68.7-----
2024-07-21 02:20 am- 0.0 1.9----30.12- 68.5-----
2024-07-21 02:10 am S 1.9 2.9----30.12- 68.4-----
2024-07-21 02:00 am S 1.9 2.9----30.13+0.00 68.0-----
2024-07-21 01:30 am S 2.9 2.9----30.13- 68.2-----
2024-07-21 01:20 am S 2.9 2.9----30.13- 68.4-----
2024-07-21 01:10 am S 1.9 2.9----30.13- 68.0-----
2024-07-21 01:00 am S 1.9 2.9----30.13+0.00 68.0-----
2024-07-21 12:40 am S 1.9 2.9----30.13- 68.4-----
2024-07-21 12:30 am S 1.9 2.9----30.13- 69.1-----
2024-07-21 12:20 amSSW 1.9 1.9----30.13- 69.3-----
2024-07-21 12:10 am S 1.9 2.9----30.13- 69.3-----
2024-07-21 12:00 am S 1.9 2.9----30.13+0.01 69.3-----
2024-07-20 11:40 pm S 1.9 1.9----30.13- 69.4-----
2024-07-20 11:30 pm S 1.0 1.9----30.13- 69.8-----
2024-07-20 11:20 pm S 1.0 1.9----30.13- 70.3-----
2024-07-20 11:10 pm- 0.0 0.0----30.13- 70.7-----
2024-07-20 11:00 pm- 0.0 1.0----30.13+0.02 70.9-----
2024-07-20 10:40 pmSSW 1.0 1.9----30.13- 71.4-----
2024-07-20 10:30 pm- 0.0 0.0----30.13- 72.1-----
2024-07-20 10:20 pm- 0.0 0.0----30.14- 72.1-----
2024-07-20 10:10 pm- 0.0 0.0----30.13- 72.5-----
2024-07-20 10:00 pm- 0.0 0.0----30.13+0.02 72.7-----
2024-07-20 09:40 pm- 0.0 0.0----30.13- 73.2-----
2024-07-20 09:30 pm- 0.0 1.0----30.13- 73.4-----
2024-07-20 09:20 pm- 0.0 0.0----30.13- 73.6-----
2024-07-20 09:10 pm- 0.0 1.9----30.13- 73.6-----
2024-07-20 09:00 pm E 1.9 2.9----30.12+0.01 73.4-----
2024-07-20 08:40 pmENE 1.9 2.9----30.12- 73.2-----
2024-07-20 08:30 pm E 2.9 2.9----30.12- 73.6-----
2024-07-20 08:10 pm E 1.9 1.9----30.11- 74.1-----
2024-07-20 08:00 pmENE 1.9 2.9----30.11-0.02 74.5-----
2024-07-20 07:40 pmENE 1.9 2.9----30.11- 74.7-----
2024-07-20 07:30 pmENE 2.9 2.9----30.11- 74.7-----
2024-07-20 07:20 pmENE 2.9 2.9----30.11- 75.2-----
2024-07-20 07:10 pmENE 2.9 2.9----30.11- 75.0-----
2024-07-20 07:00 pmENE 2.9 2.9----30.11-0.03 75.0-----
2024-07-20 06:40 pmENE 2.9 4.1----30.11- 75.4-----
2024-07-20 06:30 pmENE 2.9 4.1----30.11- 75.9-----
2024-07-20 06:20 pmENE 2.9 4.1----30.11- 76.3-----
2024-07-20 06:10 pmENE 4.1 4.1----30.11- 75.7-----
2024-07-20 06:00 pmENE 2.9 4.1----30.11- 75.7-----
2024-07-20 05:40 pmENE 4.1 4.1----30.11- 75.0-----
2024-07-20 05:30 pmENE 2.9 4.1----30.12- 75.2-----
2024-07-20 05:20 pm NE 2.9 4.1----30.12- 75.0-----
2024-07-20 05:10 pm NE 4.1 4.1----30.12- 75.4-----
2024-07-20 05:00 pm NE 4.1 4.1----30.13-0.02 75.4-----
2024-07-20 04:40 pm NE 4.1 4.1----30.13- 75.6-----
2024-07-20 04:30 pm NE 4.1 4.1----30.13- 75.7-----
2024-07-20 04:20 pm NE 4.1 5.1----30.13- 75.6-----
2024-07-20 04:10 pmENE 4.1 5.1----30.13- 75.0-----
2024-07-20 04:00 pmENE 4.1 5.1----30.14-0.02 74.5-----
2024-07-20 03:40 pm NE 4.1 5.1----30.14- 74.8-----
2024-07-20 03:30 pm NE 5.1 5.1----30.14- 74.8-----
2024-07-20 03:20 pm NE 4.1 5.1----30.14- 75.0-----
2024-07-20 03:10 pm NE 4.1 4.1----30.14- 74.5-----
2024-07-20 02:40 pm NE 4.1 5.1----30.15- 74.7-----
2024-07-20 02:30 pm NE 4.1 4.1----30.15- 74.7-----
2024-07-20 02:20 pm NE 4.1 5.1----30.15- 74.1-----
2024-07-20 02:10 pm NE 4.1 5.1----30.15- 73.8-----
2024-07-20 02:00 pm NE 4.1 5.1----30.15-0.03 74.3-----
2024-07-20 01:40 pm NE 4.1 4.1----30.15- 74.1-----
2024-07-20 01:30 pm NE 4.1 4.1----30.15- 73.2-----
2024-07-20 01:20 pm NE 2.9 4.1----30.15- 73.2-----
2024-07-20 01:10 pm NE 2.9 4.1----30.16- 72.5-----
2024-07-20 01:00 pmNNE 2.9 4.1----30.16-0.02 72.1-----
2024-07-20 12:40 pmNNE 2.9 2.9----30.16- 72.1-----
2024-07-20 12:30 pm N 1.9 2.9----30.16- 72.0-----
2024-07-20 12:20 pm N 1.9 2.9----30.17- 72.1-----
2024-07-20 12:10 pm N 1.0 1.9----30.17- 72.0-----
2024-07-20 12:00 pmNNW 1.0 1.9----30.17+0.00 72.0-----
2024-07-20 11:40 am NW 1.9 1.9----30.17- 71.8-----
2024-07-20 11:30 am NW 1.9 2.9----30.17- 71.6-----
2024-07-20 11:20 amWNW 1.9 2.9----30.17- 71.4-----
2024-07-20 11:10 amWNW 1.9 2.9----30.18- 71.2-----
2024-07-20 11:00 amWNW 1.9 2.9----30.18+0.01 71.4-----
2024-07-20 10:40 amWNW 1.9 2.9----30.18- 70.9-----
2024-07-20 10:30 amWNW 1.9 2.9----30.18- 70.9-----
2024-07-20 10:20 am W 2.9 2.9----30.18- 70.7-----
2024-07-20 10:10 amWNW 2.9 4.1----30.18- 70.9-----
2024-07-20 10:00 amWNW 2.9 4.1----30.18+0.03 70.5-----
2024-07-20 09:30 am W 2.9 2.9----30.17- 70.3-----
2024-07-20 09:20 am W 2.9 4.1----30.17- 70.3-----
2024-07-20 09:10 am W 2.9 4.1----30.17- 70.2-----
2024-07-20 09:00 am W 2.9 4.1----30.17+0.03 70.0-----
2024-07-20 08:40 am W 2.9 4.1----30.18- 70.0-----
2024-07-20 08:30 amWSW 1.9 2.9----30.18- 70.2-----
2024-07-20 08:20 am SW 1.9 2.9----30.18- 69.6-----
2024-07-20 08:10 amSSW 1.9 2.9----30.17- 69.1-----
2024-07-20 08:00 am S 1.9 2.9----30.17+0.04 68.4-----
2024-07-20 07:40 am S 1.9 2.9----30.16- 67.3-----
2024-07-20 07:30 am S 2.9 4.1----30.16- 66.6-----
2024-07-20 07:20 am S 2.9 4.1----30.16- 65.8-----
2024-07-20 07:10 am S 2.9 4.1----30.16- 65.1-----
2024-07-20 07:00 am S 2.9 2.9----30.15+0.02 64.8-----
2024-07-20 06:40 am S 1.9 2.9----30.14- 64.0-----
2024-07-20 06:30 am S 1.9 2.9----30.14- 63.7-----
2024-07-20 06:20 amSSW 1.9 2.9----30.14- 63.7-----
2024-07-20 06:10 amSSW 2.9 2.9----30.14- 63.5-----
2024-07-20 06:00 am S 2.9 2.9----30.14+0.00 63.1-----
2024-07-20 05:40 am S 1.9 2.9----30.14- 63.1-----
2024-07-20 05:30 am S 2.9 2.9----30.14- 63.3-----
2024-07-20 05:20 amSSW 1.9 2.9----30.14- 63.0-----
2024-07-20 05:10 am S 1.9 2.9----30.13- 63.0-----
2024-07-20 05:00 am S 2.9 2.9----30.13-0.02 62.8-----